SIA192 WSSS-VVNB

Flight info

Callsign SIA192
Flight time 3h 12m
Altitude 39000
Route VMR9B VMR L642 ENREP M753 IPRIX/K0913F390 M753 BITOD L637 TSH Q2 BIVIM BIVIM1A
Aircraft A359/H-SDE2E3GHIJ3J4J5LM1ORWXY/LB1D1

Departure

Time 2026-05-08 22:11
Airport Singapore Changi Airport (WSSS)

Arrival

Time 2026-05-09 01:23
Airport Noi Bai International Airport (VVNB)
Time Latitude Longitude Altitude Speed Heading
2026-05-08 21:56 1.34851 103.98731 31 ft 0 kts 297°
2026-05-08 22:02 1.34844 103.98744 30 ft 2 kts 295°
2026-05-08 22:03 1.34842 103.98750 29 ft 0 kts 295°
2026-05-08 22:03 1.34838 103.98757 31 ft 2 kts 295°
2026-05-08 22:03 1.34831 103.98771 30 ft 2 kts 300°
2026-05-08 22:03 1.34822 103.98785 29 ft 2 kts 305°
2026-05-08 22:04 1.34812 103.98798 28 ft 2 kts 319°
2026-05-08 22:04 1.34798 103.98806 28 ft 2 kts 354°
2026-05-08 22:04 1.34783 103.98804 29 ft 1 kts 21°
2026-05-08 22:04 1.34780 103.98803 28 ft 0 kts 24°
2026-05-08 22:06 1.34805 103.98815 30 ft 8 kts 31°
2026-05-08 22:06 1.34828 103.98869 31 ft 10 kts 94°
2026-05-08 22:06 1.34800 103.98945 31 ft 13 kts 112°
2026-05-08 22:06 1.34764 103.99038 32 ft 12 kts 107°
2026-05-08 22:07 1.34797 103.99111 33 ft 13 kts 34°
2026-05-08 22:07 1.34892 103.99152 32 ft 17 kts 23°
2026-05-08 22:07 1.35008 103.99201 32 ft 19 kts 23°
2026-05-08 22:07 1.35127 103.99251 32 ft 20 kts 23°
2026-05-08 22:08 1.35253 103.99306 33 ft 17 kts 24°
2026-05-08 22:08 1.35368 103.99356 33 ft 17 kts 22°
2026-05-08 22:08 1.35490 103.99407 33 ft 21 kts 22°
2026-05-08 22:08 1.35626 103.99464 33 ft 18 kts 22°
2026-05-08 22:09 1.35752 103.99515 32 ft 21 kts 22°
2026-05-08 22:09 1.35878 103.99567 32 ft 15 kts 31°
2026-05-08 22:09 1.35888 103.99645 33 ft 12 kts 123°
2026-05-08 22:09 1.35844 103.99669 35 ft 7 kts 171°
2026-05-08 22:10 1.35780 103.99673 36 ft 17 kts 180°
2026-05-08 22:10 1.35394 103.99559 37 ft 100 kts 203°
2026-05-08 22:10 1.34525 103.99191 37 ft 169 kts 203°
2026-05-08 22:10 1.33349 103.98689 613 ft 187 kts 203°
2026-05-08 22:11 1.32138 103.98185 1536 ft 188 kts 202°
2026-05-08 22:11 1.30939 103.97690 2459 ft 185 kts 201°
2026-05-08 22:11 1.29724 103.97191 3191 ft 196 kts 202°
2026-05-08 22:11 1.28418 103.96651 3799 ft 212 kts 203°
2026-05-08 22:12 1.26974 103.96031 4193 ft 240 kts 204°
2026-05-08 22:12 1.25360 103.95351 4735 ft 261 kts 201°
2026-05-08 22:12 1.23553 103.95009 5487 ft 271 kts 178°
2026-05-08 22:12 1.21750 103.95558 6354 ft 277 kts 148°
2026-05-08 22:13 1.20211 103.96749 7204 ft 283 kts 139°
2026-05-08 22:13 1.18733 103.98067 8160 ft 286 kts 139°
2026-05-08 22:13 1.17310 103.99477 9123 ft 291 kts 129°
2026-05-08 22:13 1.16375 104.01272 10065 ft 296 kts 104°
2026-05-08 22:14 1.16276 104.03357 10680 ft 313 kts 79°
2026-05-08 22:14 1.17189 104.05392 11047 ft 335 kts 52°
2026-05-08 22:14 1.18693 104.07214 11433 ft 354 kts 49°
2026-05-08 22:14 1.20491 104.08934 12030 ft 363 kts 36°
2026-05-08 22:15 1.22653 104.10267 12781 ft 368 kts 28°
2026-05-08 22:15 1.24976 104.11373 13517 ft 372 kts 18°
2026-05-08 22:15 1.27525 104.11814 14196 ft 375 kts 359°
2026-05-08 22:15 1.30094 104.11361 14859 ft 378 kts 339°
2026-05-08 22:16 1.32387 104.10057 15483 ft 383 kts 322°
2026-05-08 22:16 1.34454 104.08349 16088 ft 388 kts 319°
2026-05-08 22:16 1.36509 104.06569 16695 ft 393 kts 319°
2026-05-08 22:16 1.38595 104.04771 17312 ft 398 kts 320°
2026-05-08 22:17 1.40742 104.03007 17911 ft 402 kts 324°
2026-05-08 22:17 1.43218 104.01697 18453 ft 405 kts 340°
2026-05-08 22:17 1.45892 104.00774 18986 ft 408 kts 343°
2026-05-08 22:17 1.48610 103.99907 19530 ft 412 kts 343°
2026-05-08 22:18 1.51353 103.99033 20072 ft 415 kts 343°
2026-05-08 22:18 1.54119 103.98147 20632 ft 419 kts 343°
2026-05-08 22:18 1.56906 103.97250 21168 ft 423 kts 343°
2026-05-08 22:18 1.59713 103.96344 21723 ft 426 kts 343°
2026-05-08 22:19 1.62546 103.95428 22278 ft 430 kts 343°
2026-05-08 22:19 1.65404 103.94504 22821 ft 434 kts 343°
2026-05-08 22:19 1.68288 103.93571 23358 ft 437 kts 343°
2026-05-08 22:19 1.71191 103.92631 23805 ft 441 kts 343°
2026-05-08 22:20 1.74132 103.91712 24227 ft 443 kts 346°
2026-05-08 22:20 1.77160 103.91128 24703 ft 444 kts 355°
2026-05-08 22:20 1.80247 103.90872 25203 ft 447 kts 358°
2026-05-08 22:20 1.83360 103.90679 25725 ft 450 kts 358°
2026-05-08 22:21 1.86492 103.90489 26278 ft 453 kts 358°
2026-05-08 22:21 1.89643 103.90295 26888 ft 454 kts 358°
2026-05-08 22:21 1.92807 103.90097 27456 ft 457 kts 358°
2026-05-08 22:21 1.95994 103.89896 28012 ft 461 kts 358°
2026-05-08 22:22 1.99203 103.89693 28559 ft 464 kts 358°
2026-05-08 22:22 2.02433 103.89488 29097 ft 467 kts 358°
2026-05-08 22:22 2.05689 103.89281 29625 ft 470 kts 358°
2026-05-08 22:22 2.08963 103.89072 30111 ft 474 kts 358°
2026-05-08 22:23 2.12267 103.88862 30506 ft 477 kts 358°
2026-05-08 22:23 2.15595 103.88650 30888 ft 481 kts 358°
2026-05-08 22:23 2.18944 103.88436 31267 ft 485 kts 358°
2026-05-08 22:23 2.22324 103.88221 31642 ft 488 kts 358°
2026-05-08 22:24 2.25676 103.88007 32053 ft 490 kts 358°
2026-05-08 22:24 2.29085 103.87790 32460 ft 492 kts 358°
2026-05-08 22:24 2.32511 103.87572 32815 ft 495 kts 358°
2026-05-08 22:24 2.35959 103.87354 33156 ft 497 kts 358°
2026-05-08 22:25 2.39421 103.87350 33474 ft 498 kts
2026-05-08 22:25 2.42871 103.87710 33852 ft 499 kts
2026-05-08 22:25 2.46298 103.88180 34254 ft 497 kts
2026-05-08 22:25 2.49707 103.88728 34578 ft 496 kts 10°
2026-05-08 22:26 2.53117 103.89275 34964 ft 496 kts 10°
2026-05-08 22:26 2.56518 103.89806 35384 ft 494 kts 10°
2026-05-08 22:26 2.59917 103.90326 35791 ft 493 kts
2026-05-08 22:26 2.63295 103.90835 36320 ft 489 kts
2026-05-08 22:27 2.66643 103.91336 36822 ft 485 kts
2026-05-08 22:27 2.69976 103.91833 37245 ft 484 kts
2026-05-08 22:27 2.73302 103.92330 37648 ft 482 kts
2026-05-08 22:27 2.76617 103.92825 38050 ft 481 kts
2026-05-08 22:28 2.79922 103.93320 38452 ft 479 kts
2026-05-08 22:28 2.83220 103.93814 38761 ft 479 kts
2026-05-08 22:28 2.86511 103.94308 38857 ft 478 kts
2026-05-08 22:29 2.93082 103.95297 38871 ft 477 kts
2026-05-08 22:29 2.99644 103.96297 38869 ft 476 kts
2026-05-08 22:30 3.06175 103.97292 38869 ft 474 kts
2026-05-08 22:30 3.12686 103.98284 38869 ft 473 kts
2026-05-08 22:31 3.19197 103.99276 38869 ft 473 kts
2026-05-08 22:31 3.25665 104.00261 38870 ft 473 kts
2026-05-08 22:32 3.32176 104.01254 38869 ft 473 kts
2026-05-08 22:32 3.38703 104.02244 38871 ft 476 kts
2026-05-08 22:33 3.45262 104.03219 38870 ft 477 kts
2026-05-08 22:33 3.51845 104.04196 38873 ft 482 kts
2026-05-08 22:34 3.58546 104.05197 38872 ft 491 kts
2026-05-08 22:34 3.65310 104.06208 38872 ft 491 kts
2026-05-08 22:35 3.72075 104.07220 38865 ft 491 kts
2026-05-08 22:35 3.77694 104.08061 38871 ft 491 kts
2026-05-08 22:36 3.85588 104.09242 38867 ft 491 kts
2026-05-08 22:36 3.91202 104.10087 38866 ft 491 kts
2026-05-08 22:37 3.97958 104.11098 38864 ft 491 kts
2026-05-08 22:37 4.04717 104.12108 38867 ft 491 kts
2026-05-08 22:38 4.11473 104.13119 38867 ft 491 kts
2026-05-08 22:38 4.18233 104.14131 38866 ft 491 kts
2026-05-08 22:39 4.24991 104.15145 38868 ft 491 kts
2026-05-08 22:39 4.31753 104.16158 38867 ft 491 kts
2026-05-08 22:40 4.38515 104.17172 38871 ft 491 kts
2026-05-08 22:40 4.45272 104.18186 38868 ft 491 kts
2026-05-08 22:41 4.52051 104.19203 38870 ft 493 kts
2026-05-08 22:41 4.58836 104.20221 38869 ft 493 kts
2026-05-08 22:42 4.65578 104.21232 38872 ft 493 kts
2026-05-08 22:42 4.72365 104.22251 38870 ft 494 kts
2026-05-08 22:43 4.79169 104.23273 38868 ft 495 kts
2026-05-08 22:43 4.86009 104.24239 38868 ft 497 kts
2026-05-08 22:44 4.92948 104.24226 38870 ft 500 kts 359°
2026-05-08 22:44 4.99902 104.23883 38870 ft 500 kts 358°
2026-05-08 22:45 5.06852 104.23485 38870 ft 500 kts 358°
2026-05-08 22:45 5.13804 104.23097 38871 ft 500 kts 358°
2026-05-08 22:46 5.20755 104.22723 38868 ft 500 kts 358°
2026-05-08 22:46 5.27711 104.22354 38869 ft 501 kts 358°
2026-05-08 22:47 5.34665 104.21985 38869 ft 501 kts 358°
2026-05-08 22:47 5.41625 104.21616 38870 ft 501 kts 358°
2026-05-08 22:48 5.48574 104.21246 38868 ft 500 kts 358°
2026-05-08 22:48 5.55516 104.20876 38865 ft 499 kts 359°
2026-05-08 22:49 5.62463 104.20507 38870 ft 501 kts 359°
2026-05-08 22:49 5.72862 104.19953 38871 ft 501 kts 359°
2026-05-08 22:50 5.79827 104.19582 38872 ft 501 kts 359°
2026-05-08 22:50 5.86791 104.19211 38872 ft 501 kts 359°
2026-05-08 22:51 5.93758 104.18840 38868 ft 502 kts 358°
2026-05-08 22:51 6.00761 104.18467 38869 ft 504 kts 358°
2026-05-08 22:52 6.07763 104.18094 38869 ft 504 kts 358°
2026-05-08 22:52 6.14769 104.17720 38871 ft 504 kts 358°
2026-05-08 22:53 6.21776 104.17346 38873 ft 504 kts 358°
2026-05-08 22:53 6.28788 104.16972 38864 ft 504 kts 358°
2026-05-08 22:54 6.35775 104.16599 38868 ft 502 kts 358°
2026-05-08 22:54 6.42748 104.16227 38868 ft 502 kts 358°
2026-05-08 22:55 6.49719 104.15855 38871 ft 502 kts 358°
2026-05-08 22:55 6.56646 104.15485 38872 ft 502 kts 358°
2026-05-08 22:56 6.63622 104.15112 38871 ft 502 kts 358°
2026-05-08 22:56 6.70587 104.14740 38872 ft 501 kts 358°
2026-05-08 22:57 6.77549 104.14368 38873 ft 501 kts 358°
2026-05-08 22:57 6.84512 104.13996 38873 ft 501 kts 358°
2026-05-08 22:58 6.91469 104.13624 38871 ft 501 kts 358°
2026-05-08 22:58 6.98426 104.13252 38874 ft 501 kts 358°
2026-05-08 22:59 7.05384 104.12886 38879 ft 501 kts 358°
2026-05-08 22:59 7.12356 104.12525 38876 ft 502 kts 358°
2026-05-08 23:00 7.19325 104.12240 38888 ft 501 kts
2026-05-08 23:00 7.26159 104.13353 38876 ft 497 kts 19°
2026-05-08 23:01 7.32303 104.16470 38872 ft 495 kts 34°
2026-05-08 23:01 7.37984 104.20398 38872 ft 495 kts 36°
2026-05-08 23:02 7.43588 104.24436 38870 ft 495 kts 36°
2026-05-08 23:02 7.49197 104.28454 38869 ft 494 kts 35°
2026-05-08 23:03 7.54781 104.32417 38884 ft 494 kts 35°
2026-05-08 23:03 7.60409 104.36399 38872 ft 494 kts 35°
2026-05-08 23:04 7.66036 104.40381 38873 ft 494 kts 35°
2026-05-08 23:04 7.71666 104.44367 38890 ft 494 kts 35°
2026-05-08 23:05 7.77290 104.48351 38888 ft 494 kts 35°
2026-05-08 23:05 7.82914 104.52338 38871 ft 494 kts 35°
2026-05-08 23:06 7.88540 104.56327 38890 ft 494 kts 35°
2026-05-08 23:06 7.94166 104.60317 38888 ft 494 kts 35°
2026-05-08 23:07 7.99788 104.64305 38869 ft 494 kts 35°
2026-05-08 23:07 8.05415 104.68299 38885 ft 494 kts 35°
2026-05-08 23:08 8.11042 104.72294 38887 ft 496 kts 35°
2026-05-08 23:08 8.16695 104.76309 38889 ft 497 kts 35°
2026-05-08 23:09 8.22358 104.80332 38887 ft 498 kts 35°
2026-05-08 23:09 8.28020 104.84356 38888 ft 497 kts 35°
2026-05-08 23:10 8.33687 104.88385 38887 ft 498 kts 35°
2026-05-08 23:10 8.39350 104.92413 38874 ft 498 kts 35°
2026-05-08 23:11 8.45002 104.96434 38883 ft 496 kts 35°
2026-05-08 23:11 8.50648 105.00454 38882 ft 496 kts 35°
2026-05-08 23:12 8.56311 105.04454 38885 ft 496 kts 34°
2026-05-08 23:12 8.61948 105.08401 38882 ft 496 kts 34°
2026-05-08 23:13 8.67624 105.12382 38885 ft 496 kts 34°
2026-05-08 23:13 8.73296 105.16369 38882 ft 496 kts 34°
2026-05-08 23:14 8.78963 105.20358 38881 ft 497 kts 35°
2026-05-08 23:14 8.84651 105.24363 38884 ft 500 kts 35°
2026-05-08 23:15 8.90361 105.28385 38882 ft 500 kts 35°
2026-05-08 23:15 8.96073 105.32410 38883 ft 500 kts 34°
2026-05-08 23:16 9.01786 105.36436 38885 ft 500 kts 34°
2026-05-08 23:16 9.07496 105.40463 38883 ft 501 kts 34°
2026-05-08 23:17 9.13210 105.44494 38879 ft 501 kts 34°
2026-05-08 23:17 9.18942 105.48538 38885 ft 504 kts 34°
2026-05-08 23:18 9.24692 105.52598 38886 ft 504 kts 34°
2026-05-08 23:18 9.30449 105.56664 38886 ft 505 kts 34°
2026-05-08 23:19 9.36207 105.60733 38887 ft 505 kts 34°
2026-05-08 23:19 9.41964 105.64802 38887 ft 504 kts 34°
2026-05-08 23:20 9.47699 105.68858 38884 ft 502 kts 34°
2026-05-08 23:20 9.53424 105.72908 38880 ft 501 kts 34°
2026-05-08 23:21 9.59142 105.76954 38885 ft 501 kts 34°
2026-05-08 23:21 9.64861 105.81003 38885 ft 501 kts 34°
2026-05-08 23:22 9.70580 105.85054 38882 ft 501 kts 34°
2026-05-08 23:22 9.75331 105.88421 38880 ft 501 kts 34°
2026-05-08 23:23 9.81045 105.92474 38883 ft 501 kts 34°
2026-05-08 23:23 9.86762 105.96525 38883 ft 501 kts 34°
2026-05-08 23:24 9.92471 106.00569 38886 ft 499 kts 34°
2026-05-08 23:24 9.98142 106.04589 38883 ft 496 kts 34°
2026-05-08 23:25 10.03787 106.08594 38884 ft 495 kts 34°
2026-05-08 23:25 10.09431 106.12600 38885 ft 495 kts 34°
2026-05-08 23:26 10.15068 106.16603 38882 ft 495 kts 34°
2026-05-08 23:26 10.20673 106.20585 38877 ft 495 kts 34°
2026-05-08 23:27 10.26310 106.24591 38885 ft 495 kts 34°
2026-05-08 23:27 10.31931 106.28639 38884 ft 495 kts 35°
2026-05-08 23:28 10.37519 106.32721 38884 ft 495 kts 35°
2026-05-08 23:28 10.43111 106.36807 38883 ft 495 kts 35°
2026-05-08 23:29 10.48707 106.40887 38885 ft 494 kts 35°
2026-05-08 23:29 10.54299 106.44960 38883 ft 495 kts 35°
2026-05-08 23:30 10.59897 106.49040 38885 ft 495 kts 35°
2026-05-08 23:30 10.65494 106.53122 38885 ft 495 kts 35°
2026-05-08 23:31 10.71090 106.57205 38884 ft 495 kts 35°
2026-05-08 23:31 10.76688 106.61291 38884 ft 495 kts 35°
2026-05-08 23:32 10.82286 106.65380 38884 ft 495 kts 35°
2026-05-08 23:32 10.87835 106.69540 38883 ft 495 kts 37°
2026-05-08 23:33 10.93352 106.73748 38885 ft 496 kts 37°
2026-05-08 23:33 10.98873 106.77953 38886 ft 496 kts 36°
2026-05-08 23:34 11.04404 106.82151 38887 ft 496 kts 36°
2026-05-08 23:34 11.09937 106.86349 38889 ft 496 kts 36°
2026-05-08 23:35 11.15465 106.90543 38892 ft 496 kts 36°
2026-05-08 23:35 11.20956 106.94712 38894 ft 496 kts 36°
2026-05-08 23:36 11.26489 106.98915 38900 ft 496 kts 36°
2026-05-08 23:36 11.32027 107.03125 38900 ft 496 kts 36°
2026-05-08 23:37 11.37562 107.07338 38900 ft 495 kts 36°
2026-05-08 23:37 11.43042 107.11522 38905 ft 494 kts 36°
2026-05-08 23:38 11.48552 107.15730 38906 ft 493 kts 36°
2026-05-08 23:38 11.54014 107.19904 38913 ft 494 kts 36°
2026-05-08 23:39 11.59529 107.24120 38917 ft 495 kts 36°
2026-05-08 23:39 11.65053 107.28345 38917 ft 495 kts 36°
2026-05-08 23:40 11.70536 107.32541 38925 ft 495 kts 36°
2026-05-08 23:40 11.76058 107.36770 38933 ft 495 kts 36°
2026-05-08 23:41 11.81541 107.40970 38943 ft 494 kts 36°
2026-05-08 23:41 11.87046 107.45190 38940 ft 492 kts 36°
2026-05-08 23:42 11.92494 107.49368 38960 ft 492 kts 36°
2026-05-08 23:42 11.97985 107.53580 38960 ft 493 kts 36°
2026-05-08 23:43 12.03475 107.57796 38958 ft 492 kts 36°
2026-05-08 23:43 12.08932 107.61987 38969 ft 492 kts 36°
2026-05-08 23:44 12.14386 107.66178 38971 ft 493 kts 36°
2026-05-08 23:44 12.19873 107.70397 38970 ft 493 kts 36°
2026-05-08 23:45 12.25373 107.74628 38968 ft 494 kts 36°
2026-05-08 23:45 12.30997 107.78553 38969 ft 490 kts 27°
2026-05-08 23:46 12.37419 107.80816 38965 ft 489 kts
2026-05-08 23:46 12.44179 107.81307 38963 ft 489 kts
2026-05-08 23:47 12.51002 107.81420 38958 ft 490 kts
2026-05-08 23:47 12.57833 107.81499 38958 ft 490 kts
2026-05-08 23:48 12.64630 107.81610 38950 ft 490 kts
2026-05-08 23:48 12.71462 107.81742 38949 ft 490 kts
2026-05-08 23:49 12.78295 107.81879 38946 ft 490 kts
2026-05-08 23:49 12.85082 107.82015 38946 ft 490 kts
2026-05-08 23:50 12.91915 107.82150 38947 ft 491 kts
2026-05-08 23:50 12.98760 107.82286 38947 ft 491 kts
2026-05-08 23:51 13.05567 107.82420 38944 ft 491 kts
2026-05-08 23:51 13.12411 107.82556 38944 ft 491 kts
2026-05-08 23:52 13.19256 107.82692 38944 ft 491 kts
2026-05-08 23:52 13.26062 107.82827 38943 ft 492 kts
2026-05-08 23:53 13.32907 107.82964 38948 ft 492 kts
2026-05-08 23:53 13.39759 107.83095 38947 ft 492 kts 359°
2026-05-08 23:54 13.46609 107.83119 38947 ft 492 kts 359°
2026-05-08 23:55 13.56753 107.83253 38958 ft 477 kts
2026-05-08 23:55 13.63312 107.83483 38954 ft 467 kts
2026-05-08 23:56 13.69747 107.83691 38963 ft 458 kts
2026-05-08 23:56 13.76056 107.83847 38964 ft 450 kts
2026-05-08 23:57 13.82296 107.83960 38967 ft 453 kts 360°
2026-05-08 23:57 13.88666 107.83992 38970 ft 468 kts 359°
2026-05-08 23:58 13.95273 107.84068 38973 ft 481 kts
2026-05-08 23:58 14.01972 107.84191 38981 ft 482 kts
2026-05-08 23:59 14.08676 107.84212 38978 ft 482 kts 359°
2026-05-08 23:59 14.15381 107.84177 38982 ft 482 kts 359°
2026-05-09 00:00 14.22084 107.84157 38982 ft 482 kts 359°
2026-05-09 00:00 14.28789 107.84153 38988 ft 482 kts 359°
2026-05-09 00:01 14.35499 107.84201 38987 ft 483 kts
2026-05-09 00:01 14.42217 107.84314 38987 ft 483 kts
2026-05-09 00:02 14.48937 107.84363 38988 ft 483 kts
2026-05-09 00:02 14.55661 107.84370 38993 ft 483 kts
2026-05-09 00:03 14.62336 107.84365 38991 ft 483 kts
2026-05-09 00:03 14.69056 107.84362 39008 ft 483 kts
2026-05-09 00:04 14.75775 107.84361 39007 ft 483 kts
2026-05-09 00:04 14.82498 107.84362 39021 ft 483 kts
2026-05-09 00:05 14.89218 107.84366 39019 ft 483 kts
2026-05-09 00:05 14.95934 107.84569 39033 ft 482 kts
2026-05-09 00:06 15.02628 107.84879 39030 ft 481 kts
2026-05-09 00:06 15.09324 107.85169 39041 ft 481 kts
2026-05-09 00:07 15.16022 107.85431 39042 ft 481 kts
2026-05-09 00:07 15.22714 107.85684 39037 ft 481 kts
2026-05-09 00:08 15.29408 107.85938 39037 ft 481 kts
2026-05-09 00:08 15.36093 107.86192 39030 ft 481 kts
2026-05-09 00:09 15.42780 107.86446 39031 ft 481 kts
2026-05-09 00:09 15.49461 107.86701 39012 ft 480 kts
2026-05-09 00:10 15.56140 107.86956 39017 ft 480 kts
2026-05-09 00:10 15.62827 107.87212 39010 ft 480 kts
2026-05-09 00:11 15.69463 107.87465 39007 ft 481 kts
2026-05-09 00:11 15.76146 107.87721 38998 ft 480 kts
2026-05-09 00:12 15.82830 107.87977 38999 ft 480 kts
2026-05-09 00:12 15.89510 107.88233 38993 ft 480 kts
2026-05-09 00:13 15.95094 107.88032 39000 ft 480 kts 351°
2026-05-09 00:13 15.99378 107.86927 38998 ft 479 kts 340°
2026-05-09 00:13 16.01472 107.86056 38991 ft 479 kts 337°
2026-05-09 00:14 16.07502 107.83208 38990 ft 480 kts 335°
2026-05-09 00:14 16.13516 107.80199 38985 ft 480 kts 334°
2026-05-09 00:15 16.19529 107.77198 38980 ft 479 kts 335°
2026-05-09 00:15 16.25556 107.74218 38989 ft 479 kts 335°
2026-05-09 00:16 16.31587 107.71248 38998 ft 479 kts 334°
2026-05-09 00:16 16.37599 107.68287 38993 ft 478 kts 334°
2026-05-09 00:17 16.43605 107.65325 38991 ft 477 kts 334°
2026-05-09 00:17 16.49608 107.62363 38989 ft 477 kts 334°
2026-05-09 00:18 16.55617 107.59415 38979 ft 477 kts 334°
2026-05-09 00:18 16.61625 107.56463 38970 ft 477 kts 334°
2026-05-09 00:19 16.67634 107.53509 38963 ft 477 kts 334°
2026-05-09 00:19 16.73636 107.50557 38957 ft 477 kts 334°
2026-05-09 00:20 16.79636 107.47603 38960 ft 477 kts 334°
2026-05-09 00:20 16.85632 107.44650 38960 ft 477 kts 334°
2026-05-09 00:21 16.91631 107.41697 38964 ft 477 kts 334°
2026-05-09 00:21 16.97633 107.38745 38962 ft 477 kts 334°
2026-05-09 00:22 17.03584 107.35815 38966 ft 476 kts 334°
2026-05-09 00:22 17.09550 107.32825 38966 ft 475 kts 333°
2026-05-09 00:23 17.15497 107.29811 38969 ft 475 kts 333°
2026-05-09 00:23 17.21446 107.26803 38968 ft 475 kts 333°
2026-05-09 00:24 17.27399 107.23799 38974 ft 475 kts 334°
2026-05-09 00:24 17.33352 107.20796 38980 ft 475 kts 333°
2026-05-09 00:25 17.39293 107.17797 38976 ft 473 kts 333°
2026-05-09 00:25 17.45223 107.14801 38976 ft 473 kts 333°
2026-05-09 00:26 17.51155 107.11802 38979 ft 473 kts 333°
2026-05-09 00:26 17.57079 107.08804 38979 ft 473 kts 333°
2026-05-09 00:27 17.63002 107.05805 38982 ft 473 kts 333°
2026-05-09 00:27 17.68925 107.02803 38992 ft 473 kts 333°
2026-05-09 00:28 17.74850 106.99799 38985 ft 472 kts 333°
2026-05-09 00:28 17.80762 106.96799 38985 ft 472 kts 333°
2026-05-09 00:29 17.86673 106.93797 38987 ft 472 kts 333°
2026-05-09 00:29 17.92589 106.90805 38987 ft 472 kts 333°
2026-05-09 00:30 17.98510 106.87824 38994 ft 472 kts 333°
2026-05-09 00:30 18.04428 106.84841 38995 ft 472 kts 333°
2026-05-09 00:31 18.10312 106.81873 38993 ft 472 kts 333°
2026-05-09 00:31 18.16267 106.78865 38993 ft 472 kts 333°
2026-05-09 00:32 18.22144 106.75895 38996 ft 472 kts 333°
2026-05-09 00:32 18.28063 106.72902 38995 ft 472 kts 333°
2026-05-09 00:33 18.33980 106.69907 38996 ft 472 kts 333°
2026-05-09 00:33 18.39897 106.66910 38999 ft 472 kts 333°
2026-05-09 00:34 18.45807 106.63914 38995 ft 471 kts 333°
2026-05-09 00:34 18.51714 106.60918 39000 ft 471 kts 333°
2026-05-09 00:35 18.57613 106.57927 39002 ft 471 kts 333°
2026-05-09 00:35 18.63526 106.54946 39001 ft 471 kts 333°
2026-05-09 00:36 18.69434 106.51965 39000 ft 471 kts 333°
2026-05-09 00:36 18.75343 106.48981 39005 ft 470 kts 333°
2026-05-09 00:37 18.81224 106.46009 39004 ft 468 kts 333°
2026-05-09 00:37 18.87099 106.43037 39010 ft 468 kts 333°
2026-05-09 00:38 18.92977 106.40068 39008 ft 468 kts 333°
2026-05-09 00:38 18.98855 106.37109 39009 ft 468 kts 333°
2026-05-09 00:39 19.04736 106.34146 39005 ft 468 kts 333°
2026-05-09 00:39 19.10604 106.31187 39012 ft 467 kts 332°
2026-05-09 00:40 19.16463 106.28231 39013 ft 466 kts 332°
2026-05-09 00:40 19.22277 106.25296 39020 ft 466 kts 332°
2026-05-09 00:41 19.31062 106.20855 39014 ft 466 kts 332°
2026-05-09 00:41 19.36916 106.17893 39020 ft 466 kts 332°
2026-05-09 00:42 19.42764 106.14932 38905 ft 464 kts 332°
2026-05-09 00:42 19.45688 106.13451 38685 ft 467 kts 332°
2026-05-09 00:42 19.48623 106.11963 38423 ft 469 kts 332°
2026-05-09 00:43 19.51572 106.10468 38150 ft 471 kts 332°
2026-05-09 00:43 19.54539 106.08979 37889 ft 472 kts 332°
2026-05-09 00:43 19.57517 106.07486 37628 ft 474 kts 332°
2026-05-09 00:43 19.60504 106.05988 37373 ft 475 kts 332°
2026-05-09 00:44 19.63498 106.04485 37123 ft 477 kts 332°
2026-05-09 00:44 19.66502 106.02977 36872 ft 478 kts 332°
2026-05-09 00:44 19.69515 106.01463 36627 ft 480 kts 332°
2026-05-09 00:44 19.72532 105.99947 36382 ft 481 kts 333°
2026-05-09 00:45 19.75471 105.98355 36165 ft 481 kts 327°
2026-05-09 00:45 19.78130 105.96219 35921 ft 479 kts 314°
2026-05-09 00:45 19.80238 105.93496 35680 ft 478 kts 301°
2026-05-09 00:45 19.81679 105.90324 35455 ft 478 kts 288°
2026-05-09 00:46 19.82376 105.86876 35239 ft 478 kts 275°
2026-05-09 00:46 19.82295 105.83398 35046 ft 466 kts 262°
2026-05-09 00:46 19.81488 105.80112 34825 ft 456 kts 249°
2026-05-09 00:46 19.80035 105.77157 34592 ft 448 kts 237°
2026-05-09 00:47 19.78033 105.74644 34358 ft 447 kts 225°
2026-05-09 00:47 19.75555 105.72651 34119 ft 449 kts 212°
2026-05-09 00:47 19.72873 105.70941 33882 ft 448 kts 217°
2026-05-09 00:47 19.70564 105.68755 33613 ft 443 kts 231°
2026-05-09 00:48 19.68896 105.66041 33355 ft 438 kts 246°
2026-05-09 00:48 19.67963 105.62987 33123 ft 435 kts 261°
2026-05-09 00:48 19.67802 105.59804 32881 ft 432 kts 275°
2026-05-09 00:48 19.68404 105.56699 32633 ft 430 kts 289°
2026-05-09 00:49 19.69717 105.53880 32481 ft 421 kts 303°
2026-05-09 00:49 19.71480 105.51462 32321 ft 410 kts 309°
2026-05-09 00:49 19.73324 105.49164 32097 ft 408 kts 309°
2026-05-09 00:49 19.75147 105.46879 31834 ft 402 kts 308°
2026-05-09 00:50 19.76704 105.44447 31434 ft 397 kts 298°
2026-05-09 00:50 19.77969 105.41853 30975 ft 394 kts 295°
2026-05-09 00:50 19.79163 105.39234 30506 ft 393 kts 295°
2026-05-09 00:50 19.80349 105.36618 30029 ft 393 kts 294°
2026-05-09 00:51 19.81532 105.34011 29505 ft 391 kts 294°
2026-05-09 00:51 19.82711 105.31419 29018 ft 388 kts 294°
2026-05-09 00:51 19.83881 105.28848 28535 ft 386 kts 294°
2026-05-09 00:51 19.85044 105.26293 28065 ft 383 kts 295°
2026-05-09 00:52 19.86393 105.23861 27585 ft 381 kts 307°
2026-05-09 00:52 19.88296 105.21921 27113 ft 381 kts 324°
2026-05-09 00:52 19.90684 105.20719 26642 ft 382 kts 342°
2026-05-09 00:52 19.93317 105.20388 26162 ft 383 kts
2026-05-09 00:53 19.95922 105.20963 25681 ft 386 kts 20°
2026-05-09 00:53 19.98202 105.22380 25245 ft 386 kts 38°
2026-05-09 00:53 19.99979 105.24516 24734 ft 389 kts 58°
2026-05-09 00:53 20.01186 105.27084 24248 ft 389 kts 66°
2026-05-09 00:54 20.02253 105.29726 23763 ft 388 kts 66°
2026-05-09 00:54 20.03625 105.32161 23357 ft 383 kts 51°
2026-05-09 00:54 20.05544 105.34100 22881 ft 379 kts 38°
2026-05-09 00:54 20.07634 105.35792 22379 ft 377 kts 36°
2026-05-09 00:55 20.09736 105.37445 21878 ft 374 kts 36°
2026-05-09 00:55 20.11821 105.39086 21405 ft 371 kts 37°
2026-05-09 00:55 20.13887 105.40718 20968 ft 368 kts 38°
2026-05-09 00:55 20.15928 105.42335 20551 ft 364 kts 38°
2026-05-09 00:56 20.17947 105.43937 20092 ft 361 kts 38°
2026-05-09 00:56 20.19957 105.45534 19636 ft 360 kts 38°
2026-05-09 00:56 20.21955 105.47122 19184 ft 357 kts 38°
2026-05-09 00:56 20.23943 105.48704 18740 ft 356 kts 38°
2026-05-09 00:57 20.25917 105.50275 18293 ft 354 kts 38°
2026-05-09 00:57 20.27885 105.51842 17790 ft 352 kts 38°
2026-05-09 00:57 20.29849 105.53407 17280 ft 351 kts 38°
2026-05-09 00:57 20.31796 105.54958 16843 ft 347 kts 38°
2026-05-09 00:58 20.33726 105.56496 16349 ft 345 kts 38°
2026-05-09 00:58 20.35642 105.58023 15881 ft 343 kts 38°
2026-05-09 00:58 20.37550 105.59544 15445 ft 340 kts 38°
2026-05-09 00:58 20.39473 105.61083 15330 ft 361 kts 38°
2026-05-09 00:59 20.41616 105.62702 15302 ft 394 kts 32°
2026-05-09 00:59 20.44180 105.63874 15191 ft 407 kts 14°
2026-05-09 00:59 20.47011 105.64194 15029 ft 407 kts
2026-05-09 00:59 20.49819 105.64190 14600 ft 406 kts 359°
2026-05-09 01:00 20.52697 105.64133 14341 ft 419 kts 359°
2026-05-09 01:00 20.54633 105.64092 14180 ft 421 kts 359°
2026-05-09 01:00 20.57561 105.64038 13942 ft 421 kts 359°
2026-05-09 01:00 20.60488 105.63993 13680 ft 420 kts 359°
2026-05-09 01:01 20.63400 105.63953 13439 ft 418 kts 359°
2026-05-09 01:01 20.67242 105.63905 13135 ft 415 kts 359°
2026-05-09 01:01 20.70134 105.63877 12928 ft 415 kts 359°
2026-05-09 01:01 20.72077 105.63864 12712 ft 413 kts 359°
2026-05-09 01:02 20.74944 105.63844 12435 ft 411 kts 359°
2026-05-09 01:02 20.78699 105.63817 12090 ft 404 kts 359°
2026-05-09 01:02 20.80589 105.63803 11918 ft 402 kts 359°
2026-05-09 01:02 20.83339 105.63785 11692 ft 397 kts 359°
2026-05-09 01:03 20.86036 105.63770 11492 ft 379 kts 359°
2026-05-09 01:03 20.88615 105.63752 11263 ft 362 kts 359°
2026-05-09 01:03 20.91080 105.63731 11031 ft 347 kts 359°
2026-05-09 01:03 20.93450 105.63711 10830 ft 334 kts 359°
2026-05-09 01:04 20.95732 105.63693 10641 ft 322 kts 359°
2026-05-09 01:04 20.97926 105.63675 10553 ft 309 kts 359°
2026-05-09 01:04 21.00033 105.63658 10468 ft 297 kts 359°
2026-05-09 01:04 21.02058 105.63584 10343 ft 286 kts 352°
2026-05-09 01:05 21.03966 105.63142 10090 ft 275 kts 343°
2026-05-09 01:05 21.05778 105.62575 9609 ft 265 kts 342°
2026-05-09 01:05 21.09283 105.61439 9177 ft 264 kts 342°
2026-05-09 01:06 21.11042 105.60878 8999 ft 263 kts 342°
2026-05-09 01:06 21.12789 105.60323 8844 ft 258 kts 343°
2026-05-09 01:06 21.14448 105.59798 8693 ft 241 kts 343°
2026-05-09 01:06 21.16044 105.59279 8533 ft 238 kts 340°
2026-05-09 01:07 21.17457 105.58398 8376 ft 235 kts 314°
2026-05-09 01:07 21.18285 105.56927 8235 ft 231 kts 289°
2026-05-09 01:07 21.18777 105.55289 8082 ft 231 kts 285°
2026-05-09 01:07 21.19229 105.53636 7920 ft 231 kts 285°
2026-05-09 01:08 21.19683 105.51988 7779 ft 231 kts 285°
2026-05-09 01:08 21.20144 105.50347 7631 ft 230 kts 285°
2026-05-09 01:08 21.20608 105.48710 7494 ft 230 kts 285°
2026-05-09 01:08 21.21074 105.47068 7343 ft 230 kts 285°
2026-05-09 01:09 21.21540 105.45429 7200 ft 230 kts 285°
2026-05-09 01:09 21.22008 105.43791 7053 ft 229 kts 285°
2026-05-09 01:09 21.22478 105.42164 6917 ft 229 kts 285°
2026-05-09 01:09 21.22942 105.40533 6774 ft 229 kts 286°
2026-05-09 01:10 21.23404 105.38903 6611 ft 228 kts 286°
2026-05-09 01:10 21.23866 105.37283 6463 ft 227 kts 286°
2026-05-09 01:10 21.24327 105.35661 6308 ft 228 kts 286°
2026-05-09 01:10 21.24792 105.34043 6182 ft 228 kts 286°
2026-05-09 01:11 21.25256 105.32417 6033 ft 227 kts 287°
2026-05-09 01:11 21.25736 105.30810 5875 ft 226 kts 290°
2026-05-09 01:11 21.26583 105.29427 5732 ft 227 kts 319°
2026-05-09 01:11 21.27981 105.28752 5486 ft 221 kts 356°
2026-05-09 01:12 21.29484 105.28947 5250 ft 217 kts 17°
2026-05-09 01:12 21.30922 105.29414 5027 ft 215 kts 20°
2026-05-09 01:12 21.32344 105.29901 4905 ft 214 kts 20°
2026-05-09 01:12 21.33746 105.30422 4773 ft 212 kts 26°
2026-05-09 01:13 21.34901 105.31354 4661 ft 208 kts 53°
2026-05-09 01:13 21.35446 105.32759 4510 ft 206 kts 83°
2026-05-09 01:13 21.35290 105.34284 4400 ft 207 kts 104°
2026-05-09 01:13 21.34868 105.35763 4260 ft 208 kts 106°
2026-05-09 01:14 21.34420 105.37240 4151 ft 208 kts 106°
2026-05-09 01:14 21.33979 105.38722 4032 ft 208 kts 106°
2026-05-09 01:14 21.33547 105.40202 3951 ft 208 kts 106°
2026-05-09 01:14 21.33115 105.41685 3956 ft 209 kts 105°
2026-05-09 01:15 21.32687 105.43168 3950 ft 208 kts 105°
2026-05-09 01:15 21.32259 105.44652 3945 ft 208 kts 105°
2026-05-09 01:15 21.31833 105.46133 3944 ft 208 kts 105°
2026-05-09 01:15 21.31412 105.47612 3941 ft 207 kts 105°
2026-05-09 01:16 21.30984 105.49092 3950 ft 208 kts 105°
2026-05-09 01:16 21.30555 105.50574 3930 ft 207 kts 105°
2026-05-09 01:16 21.30131 105.52044 3934 ft 208 kts 105°
2026-05-09 01:17 21.29278 105.54999 3902 ft 207 kts 105°
2026-05-09 01:17 21.28848 105.56475 3685 ft 208 kts 107°
2026-05-09 01:17 21.28402 105.57960 3365 ft 210 kts 106°
2026-05-09 01:17 21.27973 105.59445 3095 ft 207 kts 105°
2026-05-09 01:18 21.27550 105.60922 2852 ft 207 kts 105°
2026-05-09 01:18 21.27141 105.62348 2780 ft 193 kts 105°
2026-05-09 01:18 21.26758 105.63681 2720 ft 181 kts 106°
2026-05-09 01:18 21.26402 105.64915 2686 ft 166 kts 102°
2026-05-09 01:19 21.26072 105.66068 2424 ft 162 kts 102°
2026-05-09 01:19 21.25745 105.67204 2197 ft 158 kts 100°
2026-05-09 01:19 21.25418 105.68347 1996 ft 160 kts 103°
2026-05-09 01:19 21.25094 105.69471 1770 ft 159 kts 103°
2026-05-09 01:20 21.24770 105.70604 1555 ft 159 kts 102°
2026-05-09 01:20 21.24453 105.71710 1344 ft 152 kts 103°
2026-05-09 01:20 21.24149 105.72765 1157 ft 144 kts 104°
2026-05-09 01:20 21.23866 105.73752 987 ft 132 kts 104°
2026-05-09 01:21 21.23610 105.74641 831 ft 121 kts 103°
2026-05-09 01:21 21.23361 105.75509 680 ft 123 kts 102°
2026-05-09 01:21 21.23113 105.76376 519 ft 122 kts 104°
2026-05-09 01:21 21.22867 105.77251 363 ft 123 kts 103°
2026-05-09 01:22 21.22627 105.78117 209 ft 121 kts 104°
2026-05-09 01:22 21.22369 105.78984 82 ft 121 kts 105°
2026-05-09 01:22 21.22146 105.79774 51 ft 94 kts 106°
2026-05-09 01:22 21.21984 105.80339 50 ft 66 kts 107°
2026-05-09 01:23 21.21867 105.80726 55 ft 31 kts 112°
2026-05-09 01:23 21.21771 105.80873 51 ft 25 kts 131°
2026-05-09 01:23 21.21679 105.80987 50 ft 21 kts 131°
2026-05-09 01:23 21.21590 105.81072 49 ft 7 kts 170°
2026-05-09 01:24 21.21536 105.81062 51 ft 6 kts 212°
2026-05-09 01:24 21.21526 105.81019 51 ft 7 kts 278°
2026-05-09 01:24 21.21540 105.80948 54 ft 12 kts 286°
2026-05-09 01:24 21.21567 105.80847 50 ft 17 kts 286°
2026-05-09 01:25 21.21611 105.80717 52 ft 20 kts 287°
2026-05-09 01:25 21.21648 105.80584 52 ft 15 kts 286°
2026-05-09 01:25 21.21670 105.80502 55 ft 12 kts 287°
2026-05-09 01:25 21.21701 105.80396 53 ft 17 kts 287°
2026-05-09 01:26 21.21740 105.80255 51 ft 22 kts 287°
2026-05-09 01:26 21.21787 105.80094 53 ft 25 kts 287°
2026-05-09 01:26 21.21821 105.79974 51 ft 14 kts 287°
2026-05-09 01:26 21.21851 105.79857 50 ft 19 kts 285°
2026-05-09 01:27 21.21888 105.79709 53 ft 22 kts 286°
2026-05-09 01:27 21.21926 105.79584 51 ft 10 kts 287°
2026-05-09 01:27 21.21946 105.79497 52 ft 11 kts 264°
2026-05-09 01:27 21.21887 105.79447 50 ft 8 kts 200°
2026-05-09 01:28 21.21872 105.79442 55 ft 0 kts 196°